Lawrence, MA

5:42 AM EST on November 15, 2019 (GMT -0500)
Lawrence Municipal

Weather History for KLWM - September, 2019

Change the Weather History Date:

Wednesday, September 18, 2019

  Actual Average Record
Temperature  
Mean Temperature 53 °F -  
Max Temperature 62 °F 71 °F 88 °F (1955)
Min Temperature 45 °F 52 °F 37 °F (2007)
Degree Days  
Heating Degree Days 12    
Growing Degree Days 3 (Base 50)    
Moisture  
Dew Point 42 °F    
Average Humidity 64    
Maximum Humidity 90    
Minimum Humidity 44    
Precipitation  
Precipitation 0.00 in - - ()
Sea Level Pressure  
Sea Level Pressure 30.31 in    
Wind  
Wind Speed 9 mph (NE)    
Max Wind Speed 13 mph    
Max Gust Speed 22 mph    
Visibility 10 miles    
Events      
Averages and records for this station are not official NWS values.
T = Trace of Precipitation, MM = Missing Value Source: NWS Daily Summary

Daily Weather History Graph

Daily Weather History Graph

Search for Another Location

Airport or City:

Astronomy

Sep. 18, 2019 Rise Set
Actual Time 6:27 AM EDT 6:49 PM EDT
Civil Twilight 5:58 AM EDT 7:17 PM EDT
Nautical Twilight 5:25 AM EDT 7:50 PM EDT
Astronomical Twilight 4:51 AM EDT 8:24 PM EDT
Moon 9:16 PM EDT (9/18) 10:32 AM EDT (9/18)
Length of Visible Light 13h 18m
Length of Day
12h 22m
Waning Gibbous, 82% of the Moon is Illuminated
Sep 18
Waning Gibbous
Sep 21
Last Quarter
Sep 28
New
Oct 5
First Quarter
Oct 13
Full

Hourly Weather History & Observations

Time (EDT) Temp. Dew Point Humidity Pressure Visibility Wind Dir Wind Speed Gust Speed Precip Events Conditions
12:54 AM 57.9 °F 48.0 °F 70% 30.23 in 10.0 mi NNE 12.7 mph - N/A   Overcast
1:54 AM 55.9 °F 46.9 °F 72% 30.24 in 10.0 mi NNE 10.4 mph - N/A   Overcast
2:54 AM 54.0 °F 45.0 °F 72% 30.25 in 10.0 mi North 8.1 mph - N/A   Overcast
3:54 AM 53.1 °F 44.1 °F 71% 30.25 in 10.0 mi North 6.9 mph - N/A   Overcast
4:54 AM 52.0 °F 43.0 °F 71% 30.26 in 10.0 mi NNE 8.1 mph - N/A   Overcast
5:54 AM 50.0 °F 42.1 °F 74% 30.27 in 10.0 mi NNE 6.9 mph - N/A   Overcast
6:54 AM 50.0 °F 41.0 °F 71% 30.29 in 10.0 mi NNE 6.9 mph - N/A   Overcast
8:54 AM 54.0 °F 42.1 °F 64% 30.32 in 10.0 mi NNE 12.7 mph - N/A   Partly Cloudy
9:54 AM 57.0 °F 41.0 °F 55% 30.33 in 10.0 mi NNE 12.7 mph - N/A   Clear
10:54 AM 57.9 °F 41.0 °F 53% 30.33 in 10.0 mi NE 9.2 mph 19.6 mph N/A   Partly Cloudy
11:54 AM 60.1 °F 39.9 °F 47% 30.32 in 10.0 mi ENE 10.4 mph - N/A   Mostly Cloudy
12:54 PM 60.1 °F 39.0 °F 46% 30.33 in 10.0 mi ENE 9.2 mph 21.9 mph N/A   Mostly Cloudy
1:54 PM 61.0 °F 39.9 °F 46% 30.33 in 10.0 mi ENE 12.7 mph - N/A   Partly Cloudy
2:54 PM 61.0 °F 41.0 °F 48% 30.32 in 10.0 mi NE 11.5 mph - N/A   Clear
3:54 PM 61.0 °F 39.0 °F 44% 30.32 in 10.0 mi ENE 12.7 mph - N/A   Clear
4:54 PM 59.0 °F 39.9 °F 49% 30.33 in 10.0 mi ENE 9.2 mph - N/A   Clear
5:54 PM 57.9 °F 39.0 °F 49% 30.33 in 10.0 mi ESE 4.6 mph - N/A   Clear
6:54 PM 54.0 °F 39.9 °F 59% 30.34 in 10.0 mi ESE 3.5 mph - N/A   Clear
8:54 PM 46.9 °F 42.1 °F 83% 30.36 in 10.0 mi Calm Calm - N/A   Clear
9:54 PM 46.0 °F 42.1 °F 86% 30.38 in 10.0 mi Calm Calm - N/A   Clear
10:54 PM 45.0 °F 41.0 °F 86% 30.38 in 10.0 mi Calm Calm - N/A   Clear
11:54 PM 45.0 °F 42.1 °F 90% 30.38 in 10.0 mi Calm Calm - N/A   Clear